Flag for United Kingdom Weather past 2 weeks in Greenwich Borough, England, United Kingdom

Now
50 °F

Light rain. Partly sunny.


Feels Like: 45 °F
Forecast: 44 / 65 °F
Wind: 15 mph from Northeast

Location: Biggin Hill Airport


UV Index: 3 (Moderate)

Visibility: 1 mi


Pressure: 29.62 "Hg

Humidity: 94%

Dew point: 48 °F

Location of Greenwich BoroughLocation

Historic Weather in Greenwich Borough

°F

Greenwich Borough temperature yesterday

Maximum temperature yesterday: 52 °F (at 3:20 PM)
Minimum temperature yesterday: 45 °F (at 8:50 AM)
Average temperature yesterday: 49 °F

Past Weeks' High & Low Weather Summary

 TemperatureHumidityPressure
High61 °F (Apr 9, 3:50 PM)94% (Apr 5, 7:20 PM)30.45 "Hg (Apr 5, 7:20 PM)
Low39 °F (Apr 15, 7:20 AM)27% (Apr 16, 5:50 PM)29.62 "Hg (Apr 20, 2:20 PM)
Average52 °F61%30.12 "Hg
* Reported Apr 5 2:20 PM — Apr 20 2:50 PM, Greenwich Borough, Weather by CustomWeather, © 2014

Note: Actual official high and low records may vary slightly from our data, if they occured in-between our weather recording intervals... More about our weather records

Advertising

Historic Weather Conditions — Data for Previous 24 hours

 ConditionsComfort  
Time TempWeatherWind HumidityBarometerVisibility
2:50 PM
Apr 20
50 °FLight rain. Partly sunny.15 mph94%29.62 "Hg1 mi
2:20 PM50 °FRain. Partly sunny.14 mph94%29.62 "Hg1 mi
1:50 PM50 °FRain. Partly sunny.15 mph94%29.65 "Hg1 mi
1:20 PM50 °FLight rain. Partly sunny.13 mph94%29.65 "Hg1 mi
12:50 PM52 °FLight rain. Partly sunny.14 mph88%29.65 "Hg1 mi
12:20 PM52 °FLight rain. Partly sunny.13 mph88%29.65 "Hg1 mi
11:50 AM50 °FLight rain. Partly sunny.15 mph94%29.68 "Hg1 mi
11:20 AM50 °FLight rain. Partly sunny.15 mph94%29.68 "Hg1 mi
10:50 AM50 °FPartly sunny.15 mph94%29.68 "Hg1 mi
10:20 AM50 °FThundershowers. Partly sunny.12 mph88%29.71 "Hg1 mi
9:50 AM48 °FRain. Partly sunny.12 mph94%29.71 "Hg1 mi
9:20 AM48 °FPartly sunny.10 mph87%29.71 "Hg1 mi
8:50 AM48 °FPartly sunny.8 mph87%29.71 "Hg1 mi
7:20 PM
Apr 19
46 °FPassing clouds.14 mph71%30.01 "HgN/A
6:50 PM48 °FPassing clouds.14 mph66%30.01 "HgN/A
6:20 PM48 °FScattered clouds.14 mph66%30.01 "HgN/A
5:50 PM50 °FScattered clouds.15 mph58%30.01 "HgN/A
5:20 PM50 °FScattered clouds.14 mph58%30.01 "HgN/A
4:50 PM50 °FScattered clouds.14 mph54%30.01 "HgN/A
4:20 PM50 °FScattered clouds.12 mph58%30.01 "HgN/A
Weather by CustomWeather, © 2014

See weather overview